If you wish to contribute or participate in the discussions about articles you are invited to join SKYbrary as a registered user

 Actions

Trondheim/Vaernes

From SKYbrary Wiki

ENVA
Airport
ICAO: ENVA
Summary
Name Trondheim/Vaernes
Region Europe
Territory Norway NO.gif
Location Trondheim, Norway
Serving
Coordinates 63° 27' 45", 10° 55' 24"
Runways
Designator Length Width Surface ROPS
9/27 2759 m9,051.837 ft 45 m147.638 ft ASP no/no
13/31 1454 m4,770.341 ft 36 m118.11 ft ASP /
14/32 950 m3,116.798 ft 36 m118.11 ft ASP /


METAR
Observation ENVA 240750Z 32015KT 9999 VCSH FEW026CB SCT036 BKN062 06/02 Q1013 RERA TEMPO 30025G35KT SHRA BKN014CB RMK WIND 670FT 32024G36KT
Station Trondheim / Vaernes
Date/Time 24 September 2018 07:50:00
Wind direction 320°
Wind speed 15 kts
Lowest cloud amount few clouds
Temperature 6°C
Dew point 2°C
Humidity 75%
QNH 1013 hPa
Weather condition in vicinity: showers


Trondheim Airport

ICAO: ENVA IATA: TRD

Description

International airport serving Trondheim, Norway.

Climatology

Temperate Marine climate/Oceanic climate (Köppen climate classification Cfb). Moderately cool summer and comparatively warm winter with a temperature range of only 14°C287.15 K
57.2 °F
516.87 °R
. Prevailing south-westerly winds from the Atlantic Ocean.

Maps

Terrain

Loading map...

Airport Layout

Loading map...


Accidents & Serious Incidents at or in vicinity of ENVA

None on SKYbrary